COSMOS 1275 DEB, 17640

Orbit data source: Space-Track

COSMOS 1275 DEB, 17640 is space debris in LEO originally from a launch on Thu, 04 Jun 1981 UTC launched from the Plesetsk Missile And Space Complex (PKMTR). Debris objects in space refer to the collection of defunct objects orbiting the Earth. Examples of debris include non-operational satellites, rocket bodies, and fragments generated from explosions, collisions, or faulty payload assembly.

Loading next visibility...
Identifier
17640, 1981-053LK
Orbit
LEO
Country
Flag of CISCIS
Related business
Manufacturer
Unknown
Mission
Spacecraft
Bus & Motor
Unknown
Mass
Unknown
Launch date (UTC)
1981-06-04 (44 years ago)
Launch vehicle
Unknown
Launch site
Plesetsk Missile And Space Complex (PKMTR)
Object type
Payload
Rocket body
Debris
Shape & HBR
Unknown shape, 0.1 m
Radar Cross Section
Small (<0.1 m²)

Expand to show TLE details & history
Last TLE update: 17 hours ago

TLE from 17 hours ago
0 COSMOS 1275 DEB
1 17640U 81053LK  25308.87513181  .00004843  00000-0  17554-2 0  9990
2 17640  82.9146 166.2524 0022034 146.1203 214.1399 14.33100686779020
Epoch: 2025-11-04T21:00Z
TLE epoch observation values (Epoch: 2025-11-04T21:00:11.388Z)
Latitude
0.00006°
Longitude
166.84908°
Altitude
797.435 km
Speed
7.448 km/s
True Right ascension
11h 05m 00s
True Declination
0° 00' 00"
Sunlit
Object was in daylight at epoch
Visualization orbit readout
Latitude
Unknown
Longitude
Unknown
Altitude
Unknown
Speed
Unknown
Apparent Right ascension
Unknown
Apparent Declination
Unknown
Sunlit
N/A
Visualization observer readout
Local Sidereal Time
09:32:44
Azimuth
Unknown
Elevation
Unknown
Doppler factor
Unknown
Orbital elements
Apogee altitude
794.224 km
Perigee altitude
762.686 km
Semi-major axis
7,156.592 km
Eccentricity
0.0022
Inclination
82.9146°
RAAN
166.2524°
Arg. of periapsis
146.1203°
True anomaly
213.99852°
Mean anomaly
214.1399°
Eccentric anomaly
214.06918°
Mean motion
3.58496 °/min
Orbital period
100.42 mins
BSTAR
0.0017554
Loading maneuver chart data...
Computing Atmospheric mass density...

Documentation

Showing up to 5 results
|